User: anonymous   Login
Location: Columbia
(38.9520°N, 92.3340°W)
Time: 17:29:45
(UTC-05:00)
Language:

Cosmos 2100 Rocket - Orbit

View from above orbital plane
View from above orbital plane
View from above satellite
View from above satellite

Ground track
Ground track

The orbit data is extracted from the following two-line orbital elements,

1 20805U 90083B   15084.73880576  .00000145  00000-0  13415-3 0  9994
2 20805 082.9358 305.5798 0031328 146.4082 281.3206 13.75756567231416
Epoch (UTC): 25 March 2015 17:43:52
Eccentricity: 0.0031328
inclination: 82.9358°
perigee height: 956 km
apogee height: 1002 km
right ascension of ascending node: 305.5798°
argument of perigee: 146.4082°
revolutions per day: 13.75756567
mean anomaly at epoch: 281.3206°
orbit number at epoch: 23141

The dashed part of the orbit path shows where the satellite is in the earth's shadow,  

DLR